Tracking 19638 objects as of 21-May-2019
HD Live streaming from Space Station
objects crossing your sky now

GLOBALSTAR M030

Track GLOBALSTAR M030 now!
10-day predictions
GLOBALSTAR M030 is classified as:


NORAD ID: 25854
Int'l Code: 1999-037D
Perigee: 1,892.6 km
Apogee: 1,898.8 km
Inclination: 52.0 °
Period: 124.7 minutes
Semi major axis: 8266 km
RCS: 2.6928 m2 (large)
Launch date: July 10, 1999
Source: Globalstar (GLOB)
Launch site: AIR FORCE EASTERN TEST RANGE (AFETR)
aabbcc
Your satellite tracking list
Your tracking list is empty




NASA's NSSDC Master Catalog

Two Line Element Set (TLE):
1 25854U 99037D   19140.50331192 -.00000052  00000-0  48384-3 0  9999
2 25854  51.9882 302.5821 0003748  28.4720 331.6301 11.55063717893648
Source of the keplerian elements: AFSPC